Regional Weather Roundup
Issued by NWS

Home | Current Version | Previous Version | Text Only | Print | Product List | Glossary Off
Versions: 1 2 3 4 5 6 7 8 9 10 11 12 13 14 15 16 17 18 19 20 21 22 23 24 25 26 27 28 29 30 31 32 33 34 35 36 37 38 39 40 41 42 43 44 45 46 47 48 49 50

000
ASUS45 KCYS 192310
RWRWY

WYOMING REGIONAL WEATHER ROUNDUP
NATIONAL WEATHER SERVICE CHEYENNE WY
500 PM MDT FRI SEP 19 2014

NOTE:  "FAIR" INDICATES FEW OR NO CLOUDS BELOW 12,000 FEET
WITH NO SIGNIFICANT WEATHER AND/OR OBSTRUCTIONS TO VISIBILITY.

WYZ001-200000-
YELLOWSTONE NATIONAL PARK

CITY           SKY/WX    TMP DP  RH WIND       PRES   REMARKS
LK YELLOWSTONE   N/A     62  38  40 W8        30.23S
W YELLOWSTONE  NOT AVBL

$$
WYZ002>013-054>058-071-098>099-200000-
NORTHERN WYOMING

CITY           SKY/WX    TMP DP  RH WIND       PRES   REMARKS
JACKSON        NOT AVBL
CODY             N/A    N/A N/A N/A MISG        N/A
GREYBULL       PTSUNNY   81  44  27 NW5       29.89S
WORLAND        SUNNY     81  43  26 NE3       29.91S
SHERIDAN       SUNNY     74  49  41 NW9       29.94R
BUFFALO        MOSUNNY   69  47  45 N14       29.99R
GILLETTE       MOSUNNY   76  47  35 NW15      29.94R
HULETT         FAIR      73  45  35 MISG      29.94
NEWCASTLE      FAIR      79  39  24 MISG      29.91

$$
WYZ014>020-022>026-101>103-200000-
CENTRAL WYOMING

CITY           SKY/WX    TMP DP  RH WIND       PRES   REMARKS
BIG PINEY      SUNNY     73  29  19 NW13G21   30.18R
PINEDALE       PTCLDY    68  36  30 W15       30.19R
DUBOIS         FAIR      68  32  26 W16G28    30.14S
LANDER         SUNNY     82  33  17 N7        29.98S
RIVERTON       SUNNY     82  32  16 NW20      29.99S
CASPER         SUNNY     83  32  16 W9G22     29.96S
DOUGLAS        SUNNY     84  36  18 W15G22    29.94S

$$
WYZ021-027>030-104>119-200000-
SOUTHERN WYOMING

CITY           SKY/WX    TMP DP  RH WIND       PRES   REMARKS
EVANSTON       SUNNY     75  42  30 NW10G23   30.18F
KEMMERER       CLEAR     72  34  25 W20       30.20S
FORT BRIDGER   FAIR      76  40  27 NW10      30.20F
ROCK SPRINGS   SUNNY     76  35  22 W17G23    30.14F
DIXON          FAIR      78  44  30 SW3       30.14S
RAWLINS        SUNNY     77  37  23 W18G29    30.11F
SARATOGA       FAIR      77  41  27 W15G21    30.14F
LARAMIE        MOSUNNY   75  41  29 NW16G25   30.12R
CHEYENNE       PTSUNNY   82  40  22 NW16G25   30.01S
TORRINGTON     SUNNY     86  46  24 N10G18    29.86S
PINE BLUFFS    MOCLDY    73  45  35 SE18G28   29.96R

$$


USA.gov is the U.S. government's official web portal to all federal, state and local government web resources and services.